sat.trackr.live / text

‹ back to catalog

KUIPER-00250

NORAD 67155 · 2025-301Y

PAYLOAD ACTIVE UNKNOWN

§ Identity

Operator
Country
US
Launch date
2025-12-16
Launch site
AFETR
Launch vehicle
Mass (kg)
RCS (m²)

External: N2YO · Heavens-Above · Gunter

§ Orbital elements

Epoch: 2026-09-20T09:01:18.118560Z

Period
97.30 min
Inclination
51.9006°
Eccentricity
0.0000630
Mean motion
14.79928120 rev/d
Perigee alt
629.1 km
Apogee alt
630.0 km
Semi-major
7,007.7 km
B*
2.1853e-4
RAAN
289.6872°
Arg perigee
60.4646°
Mean anomaly
299.6379°
Rev number
4,252

§ Raw data

KUIPER-002501 67155U 25301Y   26263.37590415  .00001445  00000+0  21853-3 0  99932 67155  51.9006 289.6872 0000630  60.4646 299.6379 14.79928120 42525

JSON: /api/v1/satellites/67155 · /tle

For live sub-satellite position, see the globe view (requires WebGL).

§ Visibility from observer

Set your observer location to see the next 7 days of passes ≥ 10°. The values pass through the URL so the page stays shareable.

No JS? Fill the form by hand. The geolocation button needs JavaScript.